Flag for Switzerland Weather past 2 weeks in Adliswil, Zurich, Switzerland

Now
53 °F

Cool.


Feels Like: 53 °F
Forecast: 45 / 53 °F
Wind: 2 mph from Southwest

Location: Zurich Town / Ville.

Current Time: May 25, 2015 at 10:28:31 PM

Latest Report: May 25, 2015 at 9:00 PM


Visibility: N/A

Pressure: 29.96 "Hg

Humidity: 96%

Dew point: 52 °F

Location of AdliswilLocation

Historic Weather in Adliswil — Graph

°F

Adliswil temperature yesterday

Maximum temperature yesterday: 65 °F (at 3:00 PM)
Minimum temperature yesterday: 51 °F (at 6:00 AM)
Average temperature yesterday: 57 °F

Past Weeks' High & Low Weather Summary

 TemperatureHumidityPressure
High81 °F (May 12, 3:00 PM)97% (May 15, 5:00 PM)30.34 "Hg (May 15, 5:00 PM)
Low41 °F (May 21, 1:00 AM)29% (May 12, 3:00 PM)29.71 "Hg (May 18, 7:00 PM)
Average56 °F72%30.07 "Hg
* Reported May 10 9:00 PM — May 25 9:00 PM, Adliswil, Weather by CustomWeather, © 2015

Note: Actual official high and low records may vary slightly from our data, if they occured in-between our weather recording intervals... More about our weather records

Advertising

Adliswil weather history for previous 24 hours

 ConditionsComfort  
Time TempWeatherWind HumidityBarometerVisibility
9:00 PM
Mon, May 25
53 °FCool.2 mph96%29.96 "HgN/A
8:00 PM54 °FCool.3 mph95%29.95 "HgN/A
7:00 PM56 °FCool.2 mph91%29.93 "HgN/A
6:00 PM56 °FCool.3 mph87%29.93 "HgN/A
5:00 PM56 °FCool.3 mph86%29.95 "HgN/A
4:00 PM54 °FCool.5 mph88%29.96 "HgN/A
3:00 PM54 °FCool.10 mph85%29.97 "HgN/A
2:00 PM65 °FOvercast.5 mph53%29.91 "HgN/A
1:00 PM64 °FMild.5 mph58%29.94 "HgN/A
12:00 PM61 °FCool.3 mph66%29.97 "HgN/A
11:00 AM63 °FMild.3 mph67%29.97 "HgN/A
10:00 AM58 °FCool.2 mph74%30.00 "HgN/A
9:00 AM55 °FCool.1 mph82%30.02 "HgN/A
8:00 AM54 °FOvercast.No wind79%30.02 "HgN/A
7:00 AM54 °FCool.No wind81%30.02 "HgN/A
6:40 AM53 °FCool.1 mph79%30.02 "HgN/A
6:00 AM53 °FCool.2 mph80%30.03 "HgN/A
4:00 AM55 °FCool.1 mph75%30.02 "HgN/A
3:00 AM55 °FCool.3 mph73%30.02 "HgN/A
2:00 AM55 °FCool.2 mph72%30.03 "HgN/A
1:00 AM57 °FCool.6 mph68%30.03 "HgN/A
12:00 AM58 °FCool.6 mph65%30.03 "HgN/A
10:00 PM
Sun, May 24
58 °FCool.3 mph66%30.03 "HgN/A
Weather by CustomWeather, © 2015

See weather overviewHow to use our weather pages